Date String (YYYY-MM-DD hh:mm:ss) UTC,Instrument flags,Ambient pressure (hPa),Sample flow (lpm),Bypass flow (lpm),Sample temperature (°C),Ambient temperature (°C),ASC tube jacket temperature (°C),LED temperature (°C),Box temperature (°C),Sample RH (%),Span deviation,Mass concentration (μg/m³),Mass concentration (μg/m³),Mass concentration (μg/m³)
DateTimeUTC,F1_M11,P_M11,Q1_M11,Q2_M11,T1_M11,T2_M11,T3_M11,T4_M11,T5_M11,U1_M11,ZSPAN_M11,X0_M11,X2_M11,X1_M11
2022-07-28 07:00:00,,0829.5,4.99,0.00,30.5,29.0,00.0,39.0,32.0,33.0,0000.0,0013.96,0007.24,0006.37
2022-07-28 07:01:00,,0829.5,4.99,0.00,30.5,29.0,00.0,39.0,32.1,32.8,0000.0,0014.08,0007.27,0006.38
2022-07-28 07:02:00,,0829.5,5.01,0.00,30.5,29.0,00.0,39.1,32.1,32.3,0000.0,0014.11,0007.32,0006.41
2022-07-28 07:03:00,,0829.5,5.00,0.00,30.5,29.0,00.0,39.1,32.1,31.9,0000.0,0013.05,0007.27,0006.43
2022-07-28 07:04:00,,0829.6,4.99,0.00,30.5,28.4,00.0,39.0,32.0,31.8,0000.0,0012.79,0007.21,0006.42
2022-07-28 07:05:00,,0829.6,5.01,0.00,30.5,27.8,00.0,39.0,31.9,31.9,0000.3,0013.09,0007.22,0006.41
2022-07-28 07:06:00,,0829.7,4.99,0.00,30.4,27.6,00.0,39.0,31.8,32.5,0000.0,0012.93,0007.19,0006.41
2022-07-28 07:07:00,,0829.8,5.01,0.00,30.3,27.6,00.0,38.9,31.7,33.0,0000.8,0012.47,0007.19,0006.42
2022-07-28 07:08:00,,0829.6,5.00,0.00,30.2,27.7,00.0,38.9,31.7,33.2,0002.1,0011.87,0007.23,0006.43
2022-07-28 07:09:00,,0829.7,5.00,0.00,30.2,27.8,00.0,38.9,31.7,33.3,0002.0,0011.50,0007.25,0006.44
2022-07-28 07:10:00,,0829.7,5.01,0.00,30.2,28.0,00.0,38.9,31.7,33.6,0001.4,0011.32,0007.28,0006.44
2022-07-28 07:11:00,,0829.8,5.00,0.00,30.2,28.1,00.0,38.9,31.7,33.7,0000.2,0011.30,0007.30,0006.44
2022-07-28 07:12:00,,0829.8,5.00,0.00,30.1,28.2,00.0,38.9,31.7,33.8,0000.6,0011.96,0007.31,0006.46
2022-07-28 07:13:00,,0829.8,5.00,0.00,30.1,28.3,00.0,38.8,31.8,33.9,0000.3,0011.82,0007.27,0006.45
2022-07-28 07:14:00,,0829.8,5.00,0.00,30.1,28.4,00.0,38.8,31.8,33.8,0000.5,0011.93,0007.28,0006.47
2022-07-28 07:15:00,,0829.8,5.00,0.00,30.1,28.5,00.0,38.8,31.8,33.6,0002.4,0012.19,0007.35,0006.47
2022-07-28 07:16:00,,0829.9,5.01,0.00,30.1,28.6,00.0,38.8,31.8,33.5,0000.0,0011.88,0007.34,0006.48
2022-07-28 07:17:00,,0829.8,4.99,0.00,30.1,28.6,00.0,38.8,31.9,33.4,0000.0,0011.93,0007.32,0006.49
2022-07-28 07:18:00,,0829.8,5.00,0.00,30.1,28.7,00.0,38.8,31.9,33.4,0000.0,0012.04,0007.30,0006.48
2022-07-28 07:19:00,,0829.9,4.99,0.00,30.2,28.7,00.0,38.8,31.9,33.1,0000.0,0012.01,0007.28,0006.47
2022-07-28 07:20:00,,0829.8,4.99,0.00,30.2,28.8,00.0,38.8,31.9,32.9,0000.0,0011.97,0007.24,0006.45
2022-07-28 07:21:00,,0829.9,5.01,0.00,30.2,28.8,00.0,38.8,31.9,32.9,0000.0,0011.91,0007.21,0006.44
2022-07-28 07:22:00,,0830.0,5.01,0.00,30.2,28.9,00.0,38.9,32.0,33.0,0000.0,0012.03,0007.21,0006.43
2022-07-28 07:23:00,,0830.0,5.00,0.00,30.2,28.9,00.0,38.9,32.0,33.7,0000.0,0011.48,0007.18,0006.43
2022-07-28 07:24:00,,0830.1,5.00,0.00,30.2,29.0,00.0,38.9,32.0,34.3,0000.0,0011.47,0007.21,0006.44
2022-07-28 07:25:00,,0830.1,4.99,0.00,30.2,29.0,00.0,38.9,32.0,34.3,0000.0,0011.47,0007.26,0006.44
2022-07-28 07:26:00,,0830.1,5.00,0.00,30.3,29.0,00.0,38.9,32.0,34.3,0000.0,0011.39,0007.25,0006.46
2022-07-28 07:27:00,,0830.0,5.00,0.00,30.3,29.1,00.0,38.9,32.0,34.2,0000.0,0011.36,0007.25,0006.48
2022-07-28 07:28:00,,0830.1,5.00,0.00,30.3,28.8,00.0,38.9,32.0,34.2,0000.0,0011.18,0007.29,0006.49
2022-07-28 07:29:00,,0830.1,5.02,0.00,30.2,28.0,00.0,38.8,31.9,34.4,0000.0,0010.91,0007.29,0006.50
2022-07-28 07:30:00,,0830.2,4.99,0.00,30.2,27.7,00.0,38.8,31.8,34.4,0000.0,0010.87,0007.29,0006.50
2022-07-28 07:31:00,,0830.1,5.01,0.00,30.1,27.6,00.0,38.8,31.7,34.5,0000.0,0010.97,0007.34,0006.50
2022-07-28 07:32:00,,0830.1,4.99,0.00,30.0,27.6,00.0,38.8,31.6,34.5,0000.0,0011.04,0007.35,0006.50
2022-07-28 07:33:00,,0830.1,5.00,0.00,30.0,27.7,00.0,38.8,31.6,34.6,0000.0,0010.81,0007.32,0006.50
2022-07-28 07:34:00,,0830.2,5.01,0.00,29.9,27.8,00.0,38.7,31.6,34.8,0000.0,0010.64,0007.31,0006.49
2022-07-28 07:35:00,,0830.2,5.01,0.00,29.9,28.0,00.0,38.7,31.6,34.9,0000.0,0010.74,0007.33,0006.47
2022-07-28 07:36:00,,0830.1,4.99,0.00,29.9,28.1,00.0,38.7,31.6,34.9,0000.0,0010.68,0007.28,0006.45
2022-07-28 07:37:00,,0830.2,5.01,0.00,29.9,28.2,00.0,38.7,31.7,34.8,0000.0,0010.61,0007.23,0006.41
2022-07-28 07:38:00,,0830.2,5.00,0.00,30.0,28.2,00.0,38.7,31.7,34.4,0000.0,0010.54,0007.17,0006.37
2022-07-28 07:39:00,,0830.3,5.00,0.00,30.1,28.3,00.0,38.7,31.8,34.3,0000.0,0010.45,0007.10,0006.33
2022-07-28 07:40:00,,0830.2,5.00,0.00,30.1,28.4,00.0,38.7,31.8,34.1,0000.3,0010.53,0007.10,0006.30
2022-07-28 07:41:00,,0830.3,5.00,0.00,30.1,28.5,00.0,38.7,31.7,34.1,0000.7,0010.92,0007.05,0006.26
2022-07-28 07:42:00,,0830.4,5.00,0.00,30.1,28.5,00.0,38.7,31.7,34.0,0000.0,0010.92,0006.95,0006.23
2022-07-28 07:43:00,,0830.5,5.00,0.00,30.2,28.6,00.0,38.7,31.7,34.0,0000.0,0010.71,0006.86,0006.20
2022-07-28 07:44:00,,0830.4,5.00,0.00,30.2,28.6,00.0,38.8,31.8,33.8,0000.0,0010.69,0006.82,0006.16
2022-07-28 07:45:00,,0830.4,5.00,0.00,30.2,28.7,00.0,38.8,31.8,33.2,0000.0,0010.74,0006.81,0006.13
2022-07-28 07:46:00,,0830.5,4.99,0.00,30.2,28.7,00.0,38.8,31.9,33.5,0000.0,0010.57,0006.73,0006.10
2022-07-28 07:47:00,,0830.5,5.00,0.00,30.2,28.8,00.0,38.8,31.9,33.3,0000.0,0010.88,0006.70,0006.10
2022-07-28 07:48:00,,0830.6,5.00,0.00,30.2,28.8,00.0,38.8,31.9,33.1,0000.0,0011.35,0006.67,0006.09
2022-07-28 07:49:00,,0830.6,5.01,0.00,30.2,28.9,00.0,38.8,31.9,33.0,0000.0,0011.45,0006.71,0006.11
2022-07-28 07:50:00,,0830.6,5.01,0.00,30.2,28.9,00.0,38.8,32.0,33.2,0000.0,0011.61,0006.79,0006.14
2022-07-28 07:51:00,,0830.6,4.99,0.00,30.3,28.9,00.0,38.9,32.0,33.4,0000.0,0011.62,0006.80,0006.16
2022-07-28 07:52:00,,0830.6,5.00,0.00,30.3,29.0,00.0,38.9,32.0,33.5,0000.0,0011.23,0006.81,0006.17
2022-07-28 07:53:00,,0830.6,5.00,0.00,30.3,29.0,00.0,38.9,32.0,33.4,0000.0,0010.94,0006.83,0006.19
2022-07-28 07:54:00,,0830.6,5.00,0.00,30.3,29.0,00.0,38.9,32.0,33.3,0000.0,0011.02,0006.86,0006.22
2022-07-28 07:55:00,,0830.6,4.98,0.00,30.3,29.1,00.0,38.9,32.0,33.5,0000.0,0011.03,0006.89,0006.26
2022-07-28 07:56:00,,0830.5,5.00,0.00,30.3,29.1,00.0,38.9,32.1,33.7,0000.0,0011.23,0006.91,0006.30
2022-07-28 07:57:00,,0830.5,5.00,0.00,30.3,28.7,00.0,38.9,32.0,33.9,0000.0,0011.41,0006.96,0006.34
2022-07-28 07:58:00,,0830.5,5.01,0.00,30.3,28.0,00.0,38.9,31.9,34.5,0000.0,0011.28,0007.03,0006.37
2022-07-28 07:59:00,,0830.5,5.00,0.00,30.2,27.6,00.0,38.9,31.8,34.4,0000.0,0011.05,0007.10,0006.41
